Hourly Data Report for August 22, 2000

SHERBROOKE A
QUEBEC

45°26'00.000" N
71°41'00.000" W
241.40 m
7028124
71610
YSC

Download Data

Hourly Data (August 2000)
Hourly Data Report for August 22, 2000
TIME
LST
Temp Definition
°C
Dew Point Definition
°C
Rel Hum Definition
%
Precip. Amount Definition
mm

Wind Dir Definition
10's deg

Wind Spd Definition
km/h
Visibility Definition
km
Stn Press Definition
kPa
Hmdx Definition


Wind Chill Definition


Weather Definition


00:00 7.3 7.2 99     0 15.0 99.55      
01:00 6.5 6.2 98   7 4 15.0 99.55      
02:00 7.1 6.9 99   10 4 15.0 99.55      
03:00 5.7 5.3 97     0 12.9 99.55      
04:00 5.1 4.7 97     0 8.0 99.55      
05:00 5.5 5.4 99   9 6 15.0 99.61      
06:00 8.5 8.1 97     0 15.0 99.61      
07:00 11.6 9.8 89     0 24.1 99.68     Mostly Cloudy
08:00 15.1 11.5 79   23 7 24.1 99.65     Mostly Cloudy
09:00 17.3 12.7 74   21 9 24.1 99.65     Mostly Cloudy
10:00 19.3 12.4 64   28 6 24.1 99.61     Mainly Clear
11:00 20.6 11.2 55   28 13 24.1 99.55     Mainly Clear
12:00 20.6 11.0 54   26 15 24.1 99.51     Mostly Cloudy
13:00 21.2 11.0 52   26 15 24.1 99.45     Mainly Clear
14:00 22.3 8.9 42   22 9 24.1 99.38     Mainly Clear
15:00 22.0 10.4 48   27 13 24.1 99.41     Mostly Cloudy
16:00 21.9 10.9 50   29 15 24.1 99.45     Mostly Cloudy
17:00 20.8 11.4 55   28 11 15.0 99.41      
18:00 17.8 13.8 77     0 15.0 99.38      
19:00 14.6 12.4 87     0 15.0 99.38      
20:00 13.3 12.1 92   9 4 15.0 99.38      
21:00 12.3 11.5 95   8 4 15.0 99.38      
22:00 13.6 12.7 94     0 15.0 99.38      
23:00 13.5 12.2 92   8 4 15.0 99.35      

Notes on Data Quality.

Legend

  • E = Estimated
  • M = Missing
  • NA = Not Available*
  • [empty] = Indicates an unobserved value
Date modified: